Regional Weather Roundup
Issued by NWS Spokane, WA

Home | Current Version | Previous Version | Text Only | Print | Product List | Glossary On
Versions: 1 2 3 4 5 6 7 8 9 10 11 12 13 14 15 16 17 18 19 20 21 22 23 24 25 26 27 28 29 30 31 32 33 34 35 36 37 38 39 40 41 42 43 44 45 46 47 48 49 50
922
NZUS01 KOTX 290825
RWROTX

Eastern Washington/Northern Idaho Roundup
National Weather Service, Spokane WA
100 AM PDT WED MAR 29 2017

Note: "fair" indicated few or no clouds below 12,000 feet with no
significant weather and/or obstructions to visibility.

...Northeast Washington and Northern Idaho Panhandle...

CITY           SKY/WX    TMP DP  RH WIND       PRES   REMARKS
Spokane Intl   CLOUDY    42  36  79 S7        30.15F
Spokane Downto CLOUDY    45  38  76 E5        30.17F
Coeur d Alene  LGT RAIN  41  38  89 SE8       30.18S
Deer Park      CLOUDY    41  37  86 SE6       30.16F
Sandpoint      DRIZZLE   39  39 100 CALM      30.17F
Bonners Ferry  CLOUDY    39  36  87 CALM      30.14F

...Southeast Washington and southern Idaho Panhandle...

CITY           SKY/WX    TMP DP  RH WIND       PRES   REMARKS
Walla Walla    CLOUDY    52  39  61 S5        30.17F
Pullman/Moscow CLOUDY    44  37  76 S9        30.19F
Lewiston       CLOUDY    47  39  74 E7        30.20F
Lowell           N/A     42  39  89 N3        30.26F
Grangeville    CLOUDY    41  37  87 CALM      30.19F

...Columbia Basin...

CITY           SKY/WX    TMP DP  RH WIND       PRES   REMARKS
Ephrata        LGT RAIN  46  37  71 SW8       30.10F
Moses Lake     CLOUDY    47  38  71 S5        30.13F
Pasco            N/A    N/A N/A N/A MISG      30.17F
Richland       LGT RAIN  53  39  59 S7        30.16F
Hermiston      LGT RAIN  49  44  83 S6        30.16F
Pendleton      CLOUDY    48  40  73 CALM      30.16F

...East Slopes Cascades...

CITY           SKY/WX    TMP DP  RH WIND       PRES   REMARKS
The Dalles     LGT RAIN  49  45  86 SW6       30.17F
Yakima         LGT RAIN  50  41  71 S13G24    30.13F
Ellensburg     LGT RAIN  43  39  86 SE3       30.11F
Wenatchee      LGT RAIN  46  38  73 NW5       30.11F
Omak           MOCLDY    48  35  60 S8        30.09F
Chelan           N/A     45  36  70 SE13        N/A
Sunnyside      LGT RAIN  45  41  88 NW5       30.15F

...Southern British Columbia...

CITY           SKY/WX    TMP DP  RH WIND       PRES   REMARKS
Penticton      LGT RAIN  50  37  62 S13G20    30.06F
Cranbrook      CLOUDY    39  32  75 S7        30.08F
Osoyoos          N/A     52  37  58 SE8         N/A
Creston          N/A     39  37  93 NW2         N/A

...Western Montana...

CITY           SKY/WX    TMP DP  RH WIND       PRES   REMARKS
Kalispell      CLOUDY    41  33  73 S8        30.14F
Missoula       CLOUDY    39  34  82 W5        30.19F

...Neighboring Cities...

CITY           SKY/WX    TMP DP  RH WIND       PRES   REMARKS
Seattle        LGT RAIN  45  43  93 SW5       30.12F
Portland       LGT RAIN  47  44  90 CALM      30.16F
Boise          CLEAR     40  32  73 SE7       30.24F
Great Falls    CLOUDY    39  25  57 SW14      30.05S
Calgary        CLEAR     37  18  44 SW3       29.89S



USA.gov is the U.S. government's official web portal to all federal, state and local government web resources and services.